Regional Weather Roundup
Issued by NWS Raleigh/Durham, NC

Home | Current Version | Previous Version | Text Only | Print | Product List | Glossary On
Versions: 1 2 3 4 5 6 7 8 9 10 11 12 13 14 15 16 17 18 19 20 21 22 23 24 25 26 27 28 29 30 31 32 33 34 35 36 37 38 39 40 41 42 43 44 45 46 47 48 49 50
000
ASUS42 KRAH 201310
RWRRAH
NORTH CAROLINA WEATHER ROUNDUP
NATIONAL WEATHER SERVICE RALEIGH NC
800 AM EST SAT DEC 20 2014

NOTE: "FAIR" INDICATES FEW OR NO CLOUDS BELOW 12,000 FEET WITH NO
SIGNIFICANT WEATHER AND/OR OBSTRUCTIONS TO VISIBILITY.

NCZ001-053-055-056-065-067-201400-
WESTERN NORTH CAROLINA

CITY           SKY/WX    TMP DP  RH WIND       PRES   REMARKS
ASHEVILLE      LGT RAIN  38  35  89 S3        30.18S
JEFFERSON      CLOUDY    32  25  75 CALM      30.16R
MORGANTON      CLOUDY    38  32  78 CALM      30.27R
HICKORY        CLOUDY    39  31  72 CALM      30.23R
RUTHERFORDTON  RAIN      38  36  94 CALM      30.23R
MOUNT AIRY     CLOUDY    35  27  71 CALM      30.27R
BOONE          LGT SNOW  32  26  79 SE3       30.16S
$$

NCZ021-022-025-041-071-084-088-201400-
CENTRAL NORTH CAROLINA

CITY           SKY/WX    TMP DP  RH WIND       PRES   REMARKS
CHARLOTTE      LGT RAIN  40  33  76 VRB3      30.25R
GREENSBORO     CLOUDY    34  27  75 NE7       30.24S WCI  28
WINSTON-SALEM  CLOUDY    33  26  75 NE7       30.26F WCI  27
RALEIGH-DURHAM CLOUDY    35  25  66 NE6       30.29S WCI  30
FORT BRAGG     MIX PCPN  38  34  84 NE6       30.25S WCI  34
FAYETTEVILLE   LGT RAIN  39  35  86 NE7       30.25R WCI  34
BURLINGTON     CLOUDY    36  25  64 NE6       30.27S WCI  31
LAURINBURG     CLOUDY    40  36  86 NE8       30.24R WCI  34
$$

NCZ011-015-027-028-043-044-047-080-103-201400-
NORTHEASTERN NORTH CAROLINA

CITY           SKY/WX    TMP DP  RH WIND       PRES   REMARKS
ROCKY MT-WILSO CLOUDY    34  28  79 NE6       30.30R WCI  29
GREENVILLE     CLOUDY    34  32  93 CALM      30.31R
WASHINGTON     CLOUDY    34  31  89 N3        30.30R
ELIZABETH CITY CLOUDY    39  30  70 NW6       30.30R WCI  35
MANTEO         CLOUDY    40  34  77 N5        30.28R
CAPE HATTERAS  CLOUDY    43  35  73 VRB3      30.27R
$$

NCZ078-087-090-091-093-098-101-201400-
SOUTHEASTERN NORTH CAROLINA

CITY           SKY/WX    TMP DP  RH WIND       PRES   REMARKS
LUMBERTON      CLOUDY    42  35  76 NE7       30.23R
GOLDSBORO      CLOUDY    37  36  97 NE5       30.26S WCI  33
KINSTON        CLOUDY    37  32  81 N6        30.29S WCI  33
KENANSVILLE    LGT RAIN  37  35  91 CALM      30.28R
NEW BERN       CLOUDY    40  35  83 NE7       30.28S
CHERRY POINT   CLOUDY    42  37  82 NE9       30.27S
BEAUFORT       CLOUDY    43  37  79 NE7       30.25F
JACKSONVILLE   CLOUDY    41  37  86 NE6       30.26R
WILMINGTON     LGT RAIN  42  40  92 NE8       30.22F
$$



USA.gov is the U.S. government's official web portal to all federal, state and local government web resources and services.